{"data":{"norad_id":64784,"epoch":"2026-09-19T22:05:06.895680Z","epoch_age_seconds":71965,"freshness":"FRESH","line1":"1 64784U 25148A   26262.92021870  .00000000  00000+0  00000+0 0  9994","line2":"2 64784   0.0223 148.5118 0000513  71.6324 105.9226  1.00271164  4245","mean_motion":1.00271164,"eccentricity":5.13e-5,"inclination_deg":0.0223,"raan_deg":148.5118,"arg_perigee_deg":71.6324,"mean_anomaly_deg":105.9226,"bstar":0,"rev_number":424,"period_min":1436.1057980737,"perigee_km":35784.605991252,"apogee_km":35788.932110613,"semimajor_km":42164.906050932,"source":"CELESTRAK","updated_at":"2026-09-20T09:00:35.345614Z"}}